Zurück zum Katalog

COSMOS 2251 DEB

AktivLEO
NORAD 34070·DEBRIS·🇷🇺 Russia

Gestartet Jun 16, 1993 von Plesetsk Cosmodrome

Loading…

Nächste Überflüge (nächste 24 Stunden)

TLE

AktuellSource: Space-Track

Epoche: Sep 14, 2026, 21:01 UTC

1 34070U 93036KH  26257.87573633  .00010737  00000-0  12723-2 0  9994
2 34070  73.9970 290.0148 0020752 327.7122 209.1135 14.84469262926997

Verfolge COSMOS 2251 DEB in Echtzeit mit AllMySat

Download on the App Store